Time,TemperatureF,DewpointF,PressureIn,WindDirection,WindDirectionDegrees,WindSpeedMPH,WindSpeedGustMPH,Humidity,HourlyPrecipIn,Conditions,Clouds,dailyrainin,SoftwareType,DateUTC
2017-04-23 00:09:00,62.5,60.0,29.87,SSW,195,1.0,5.0,90,0.00,,,0.00,weatherlink.com 1.10,2017-04-23 07:09:00,
2017-04-23 00:24:00,62.5,60.0,29.87,SSE,156,3.0,5.0,90,0.00,,,0.00,weatherlink.com 1.10,2017-04-23 07:24:00,
2017-04-23 00:39:00,62.6,60.0,29.88,SSE,167,0.0,6.0,91,0.00,,,0.00,weatherlink.com 1.10,2017-04-23 07:39:00,
2017-04-23 00:54:00,62.2,60.0,29.88,SSE,167,0.0,0.0,92,0.00,,,0.00,weatherlink.com 1.10,2017-04-23 07:54:00,
2017-04-23 01:09:00,61.6,59.0,29.88,SSE,167,1.0,3.0,92,0.00,,,0.00,weatherlink.com 1.10,2017-04-23 08:09:00,
2017-04-23 01:24:00,60.5,58.0,29.87,South,187,0.0,4.0,90,0.00,,,0.00,weatherlink.com 1.10,2017-04-23 08:24:00,
2017-04-23 02:09:00,59.1,56.0,29.86,South,187,0.0,0.0,89,0.00,,,0.00,weatherlink.com 1.10,2017-04-23 09:09:00,
2017-04-23 02:24:00,58.7,56.0,29.85,South,187,0.0,0.0,89,0.00,,,0.00,weatherlink.com 1.10,2017-04-23 09:24:00,
2017-04-23 02:39:00,58.5,56.0,29.84,South,187,0.0,0.0,91,0.00,,,0.00,weatherlink.com 1.10,2017-04-23 09:39:00,
2017-04-23 02:54:00,58.4,56.0,29.85,South,187,0.0,0.0,91,0.00,,,0.00,weatherlink.com 1.10,2017-04-23 09:54:00,
2017-04-23 03:24:00,58.1,56.0,29.85,South,187,0.0,1.0,92,0.00,,,0.00,weatherlink.com 1.10,2017-04-23 10:24:00,
2017-04-23 03:39:00,58.1,56.0,29.85,South,187,0.0,1.0,92,0.00,,,0.00,weatherlink.com 1.10,2017-04-23 10:39:00,
2017-04-23 03:54:00,57.7,55.0,29.85,South,187,0.0,0.0,92,0.00,,,0.00,weatherlink.com 1.10,2017-04-23 10:54:00,
2017-04-23 04:09:00,58.0,56.0,29.85,South,187,0.0,1.0,93,0.00,,,0.00,weatherlink.com 1.10,2017-04-23 11:09:00,
2017-04-23 04:24:00,57.8,56.0,29.85,South,187,0.0,0.0,93,0.00,,,0.00,weatherlink.com 1.10,2017-04-23 11:24:00,
2017-04-23 04:39:00,58.1,56.0,29.85,South,187,0.0,0.0,93,0.00,,,0.00,weatherlink.com 1.10,2017-04-23 11:39:00,
2017-04-23 04:54:00,57.9,56.0,29.85,South,187,0.0,0.0,93,0.00,,,0.00,weatherlink.com 1.10,2017-04-23 11:54:00,
2017-04-23 05:09:00,57.4,55.0,29.85,South,187,0.0,0.0,93,0.00,,,0.00,weatherlink.com 1.10,2017-04-23 12:09:00,
2017-04-23 05:24:00,57.3,55.0,29.84,South,187,0.0,0.0,93,0.00,,,0.00,weatherlink.com 1.10,2017-04-23 12:24:00,
2017-04-23 05:39:00,57.1,55.0,29.85,South,187,0.0,0.0,93,0.00,,,0.00,weatherlink.com 1.10,2017-04-23 12:39:00,
2017-04-23 05:54:00,57.4,56.0,29.85,South,187,0.0,2.0,94,0.00,,,0.00,weatherlink.com 1.10,2017-04-23 12:54:00,
2017-04-23 06:09:00,57.6,56.0,29.85,South,187,0.0,0.0,94,0.00,,,0.00,weatherlink.com 1.10,2017-04-23 13:09:00,
2017-04-23 06:24:00,57.1,55.0,29.86,South,187,0.0,0.0,94,0.00,,,0.00,weatherlink.com 1.10,2017-04-23 13:24:00,
2017-04-23 06:39:00,56.9,55.0,29.86,South,187,0.0,0.0,94,0.00,,,0.00,weatherlink.com 1.10,2017-04-23 13:39:00,
2017-04-23 06:54:00,56.9,56.0,29.87,South,187,0.0,0.0,95,0.00,,,0.00,weatherlink.com 1.10,2017-04-23 13:54:00,
2017-04-23 07:39:00,61.0,60.0,29.89,South,182,3.0,8.0,95,0.00,,,0.00,weatherlink.com 1.10,2017-04-23 14:39:00,
2017-04-23 07:54:00,61.4,60.0,29.90,South,186,1.0,6.0,95,0.00,,,0.00,weatherlink.com 1.10,2017-04-23 14:54:00,
2017-04-23 08:09:00,61.9,61.0,29.89,SSW,193,1.0,7.0,95,0.00,,,0.00,weatherlink.com 1.10,2017-04-23 15:09:00,
2017-04-23 08:24:00,62.8,61.0,29.89,South,169,5.0,5.0,94,0.00,,,0.00,weatherlink.com 1.10,2017-04-23 15:24:00,
2017-04-23 08:39:00,63.8,61.0,29.89,South,181,1.0,5.0,91,0.00,,,0.00,weatherlink.com 1.10,2017-04-23 15:39:00,
2017-04-23 08:54:00,63.6,60.0,29.89,WSW,244,0.0,5.0,88,0.00,,,0.00,weatherlink.com 1.10,2017-04-23 15:54:00,
2017-04-23 09:09:00,63.9,60.0,29.89,WSW,249,0.0,4.0,88,0.00,,,0.00,weatherlink.com 1.10,2017-04-23 16:09:00,
2017-04-23 09:24:00,64.7,61.0,29.89,WSW,248,3.0,5.0,86,0.00,,,0.00,weatherlink.com 1.10,2017-04-23 16:24:00,
2017-04-23 09:40:00,65.3,61.0,29.90,WSW,242,0.0,5.0,85,0.00,,,0.00,weatherlink.com 1.10,2017-04-23 16:40:00,
2017-04-23 09:55:00,65.8,61.0,29.91,West,270,2.0,7.0,84,0.00,,,0.00,weatherlink.com 1.10,2017-04-23 16:55:00,
2017-04-23 10:10:00,67.3,62.0,29.91,SSW,200,6.0,7.0,82,0.00,,,0.00,weatherlink.com 1.10,2017-04-23 17:10:00,
2017-04-23 10:25:00,68.7,61.0,29.91,SW,226,0.0,7.0,77,0.00,,,0.00,weatherlink.com 1.10,2017-04-23 17:25:00,
2017-04-23 10:40:00,69.3,61.0,29.91,SW,217,3.0,7.0,76,0.00,,,0.00,weatherlink.com 1.10,2017-04-23 17:40:00,
2017-04-23 10:55:00,69.4,62.0,29.90,SSW,198,3.0,8.0,76,0.00,,,0.00,weatherlink.com 1.10,2017-04-23 17:55:00,
2017-04-23 11:10:00,70.1,62.0,29.89,SSE,150,3.0,6.0,76,0.00,,,0.00,weatherlink.com 1.10,2017-04-23 18:10:00,
2017-04-23 11:25:00,71.9,62.0,29.88,ESE,123,4.0,9.0,71,0.00,,,0.00,weatherlink.com 1.10,2017-04-23 18:25:00,
2017-04-23 11:40:00,73.2,63.0,29.88,SSE,164,1.0,8.0,70,0.00,,,0.00,weatherlink.com 1.10,2017-04-23 18:40:00,
2017-04-23 12:10:00,73.0,63.0,29.88,SSE,166,4.0,11.0,70,0.00,,,0.00,weatherlink.com 1.10,2017-04-23 19:10:00,
2017-04-23 12:25:00,73.1,62.0,29.89,SSW,204,3.0,11.0,69,0.00,,,0.00,weatherlink.com 1.10,2017-04-23 19:25:00,
2017-04-23 12:40:00,71.1,62.0,29.89,SSW,207,4.0,13.0,73,0.00,,,0.00,weatherlink.com 1.10,2017-04-23 19:40:00,
2017-04-23 12:55:00,71.0,62.0,29.89,South,184,12.0,13.0,73,0.00,,,0.00,weatherlink.com 1.10,2017-04-23 19:55:00,
2017-04-23 13:10:00,70.9,62.0,29.89,SSW,193,5.0,13.0,74,0.00,,,0.00,weatherlink.com 1.10,2017-04-23 20:10:00,
2017-04-23 13:40:00,70.4,62.0,29.88,SSW,213,2.0,12.0,74,0.00,,,0.00,weatherlink.com 1.10,2017-04-23 20:40:00,
2017-04-23 13:55:00,70.9,62.0,29.88,SSW,207,7.0,10.0,74,0.00,,,0.00,weatherlink.com 1.10,2017-04-23 20:55:00,
2017-04-23 14:25:00,70.1,62.0,29.87,SW,227,8.0,13.0,75,0.00,,,0.00,weatherlink.com 1.10,2017-04-23 21:25:00,
2017-04-23 14:40:00,70.9,61.0,29.87,SW,219,6.0,17.0,72,0.00,,,0.00,weatherlink.com 1.10,2017-04-23 21:40:00,
2017-04-23 14:55:00,70.6,62.0,29.87,SW,216,2.0,14.0,74,0.00,,,0.00,weatherlink.com 1.10,2017-04-23 21:55:00,
2017-04-23 15:10:00,70.4,61.0,29.87,SSW,200,3.0,16.0,73,0.00,,,0.00,weatherlink.com 1.10,2017-04-23 22:10:00,
2017-04-23 15:25:00,69.3,61.0,29.86,WSW,245,7.0,15.0,75,0.00,,,0.00,weatherlink.com 1.10,2017-04-23 22:25:00,
2017-04-23 15:40:00,69.5,61.0,29.86,SW,217,7.0,14.0,75,0.00,,,0.00,weatherlink.com 1.10,2017-04-23 22:40:00,